Location: ??????
(55.2000°N, 38.3000°E)
Time: 07:37:40
(UTC+00:00)

Cosmos 1371 Rocket - Pass Details

Date: 15 November 2025
Orbit: 749 x 785 km, 74.0° (Epoch: 14 December)

Event Time Altitude Azimuth Distance (km) Brightness Sun altitude
Rises 02:20:47 0° 194° (SSW) 3,240 7.1 -22.3°
Reaches altitude 10° 02:23:10 10° 191° (S) 2,322 6.4 -22.0°
Maximum altitude 02:28:22 62° 111° (ESE) 879 4.5 -21.2°
Drops below altitude 10° 02:33:39 10° 32° (NNE) 2,355 6.9 -20.5°
Sets 02:36:04 0° 29° (NNE) 3,289 7.6 -20.1°
